GFSNE_850_dewp_162.txt.gz
Dewpoint
-6 -6 -5 -5 -5 -5 -6 -6 -6 -5 -4 -1 -0 1 -0 0 4 5 5 7 9 8 8 9 10 8 7 8 8 7 10 10 10 10 10 10 10 10
-7 -7 -6 -6 -5 -5 -6 -5 -6 -6 -5 -3 -1 -0 1 2 3 4 6 7 8 8 9 10 10 9 8 8 6 6 9 11 10 10 10 10 11 10
-29 -26 -19 -10 -6 -5 -6 -6 -5 -5 -5 -3 -2 -1 0 2 3 5 7 8 8 8 9 10 10 10 10 9 8 9 8 10 11 11 10 10 10 11
-32 -32 -30 -26 -12 -7 -6 -7 -6 -6 -6 -5 -3 -1 -0 0 2 3 5 6 8 9 9 10 10 10 10 9 8 8 10 9 10 10 10 11 10 10
-33 -32 -31 -29 -26 -14 -7 -6 -6 -7 -6 -6 -5 -4 -2 -1 0 -0 2 3 6 8 8 9 10 10 10 10 9 8 8 10 9 9 8 10 10 10
-32 -33 -30 -26 -25 -23 -18 -10 -7 -6 -6 -5 -5 -5 -5 -3 -2 -2 -2 0 1 5 6 7 7 9 9 9 9 9 9 6 6 6 7 7 7 10
-33 -34 -34 -29 -25 -22 -18 -16 -13 -8 -8 -7 -6 -6 -6 -6 -4 -4 -4 -3 -1 -0 -1 3 4 4 6 8 8 8 7 6 7 7 7 7 7 7
-33 -33 -35 -34 -30 -26 -20 -14 -14 -14 -11 -10 -9 -7 -7 -6 -7 -6 -4 -3 -4 -4 -2 -2 1 1 1 4 5 7 7 8 8 7 5 6 7 7
-28 -31 -34 -34 -34 -32 -28 -22 -17 -14 -12 -11 -11 -10 -8 -8 -7 -7 -8 -6 -6 -6 -6 -5 -3 -3 -5 -3 0 1 1 2 3 5 6 6 7 8
-23 -23 -30 -33 -33 -33 -32 -30 -28 -22 -15 -13 -11 -11 -9 -8 -8 -7 -7 -8 -7 -7 -7 -8 -7 -7 -6 -4 -4 -4 -3 -2 -1 -1 1 2 5 6
-24 -18 -22 -29 -32 -33 -34 -33 -31 -28 -25 -19 -15 -14 -14 -13 -7 -6 -6 -6 -7 -8 -8 -8 -8 -8 -6 -5 -5 -4 -4 -4 -3 -3 -2 -1 -0 1
-23 -24 -17 -18 -28 -31 -34 -34 -34 -32 -32 -32 -29 -25 -22 -20 -19 -14 -10 -9 -9 -8 -9 -10 -8 -8 -8 -8 -7 -6 -5 -5 -4 -4 -4 -3 -3 -2
-21 -22 -21 -22 -22 -27 -30 -31 -32 -33 -34 -34 -33 -30 -25 -23 -20 -16 -14 -14 -12 -12 -11 -10 -9 -9 -9 -9 -9 -8 -8 -7 -6 -5 -5 -5 -4 -4
-20 -20 -21 -22 -24 -26 -27 -28 -29 -32 -33 -34 -35 -34 -33 -28 -23 -21 -20 -19 -17 -16 -13 -13 -12 -12 -12 -13 -14 -14 -12 -14 -14 -16 -16 -9 -7 -6
-22 -21 -21 -23 -25 -26 -25 -25 -28 -29 -30 -32 -32 -32 -33 -33 -33 -31 -30 -29 -29 -28 -25 -20 -16 -15 -16 -18 -19 -21 -22 -18 -18 -16 -15 -17 -17 -17
-24 -23 -24 -25 -26 -26 -27 -26 -26 -26 -26 -28 -30 -31 -32 -34 -35 -35 -36 -36 -36 -35 -34 -31 -23 -20 -20 -21 -23 -27 -26 -25 -24 -20 -15 -14 -16 -16
-26 -26 -28 -30 -30 -29 -28 -27 -26 -25 -25 -25 -28 -30 -31 -32 -33 -34 -34 -35 -35 -36 -36 -35 -32 -22 -21 -28 -28 -31 -32 -31 -30 -29 -26 -20 -15 -15
-28 -29 -30 -30 -30 -30 -29 -27 -26 -24 -24 -24 -25 -27 -29 -30 -31 -32 -33 -34 -34 -33 -34 -34 -36 -34 -30 -29 -30 -32 -32 -32 -33 -32 -30 -29 -24 -16
-29 -30 -30 -30 -30 -29 -30 -29 -26 -22 -21 -23 -24 -25 -27 -28 -30 -32 -33 -34 -33 -32 -31 -32 -32 -31 -30 -29 -33 -31 -30 -31 -32 -33 -32 -30 -29 -23
-31 -30 -30 -30 -30 -30 -29 -29 -26 -23 -22 -21 -22 -23 -26 -28 -31 -32 -33 -32 -32 -32 -31 -30 -30 -29 -25 -25 -26 -31 -29 -29 -30 -31 -31 -32 -30 -27
-31 -30 -30 -30 -30 -30 -29 -28 -27 -24 -22 -21 -22 -23 -25 -28 -31 -32 -32 -31 -31 -30 -29 -29 -29 -28 -28 -29 -29 -30 -31 -30 -29 -28 -28 -28 -30 -31
-30 -30 -30 -30 -30 -29 -29 -29 -27 -25 -23 -22 -22 -23 -26 -30 -32 -31 -30 -29 -29 -28 -28 -28 -28 -28 -28 -28 -28 -28 -29 -30 -30 -30 -29 -27 -25 -25
-30 -29 -29 -30 -30 -29 -28 -29 -28 -27 -25 -24 -23 -24 -30 -32 -31 -30 -30 -29 -28 -28 -27 -27 -27 -28 -28 -28 -27 -26 -24 -25 -26 -29 -31 -27 -29 -30

GFSNE_850_dewp_165.txt.gz
Dewpoint
-26 -20 -14 -7 -6 -7 -7 -7 -8 -6 -5 -3 -4 -1 -0 1 2 2 3 4 4 5 7 8 8 9 9 8 9 8 6 7 10 11 11 10 10 10
-32 -28 -26 -15 -8 -6 -7 -7 -6 -8 -7 -5 -5 -4 -1 0 1 2 3 4 5 4 5 7 7 7 9 10 8 8 8 6 8 11 10 11 11 11
-34 -31 -29 -25 -17 -9 -6 -6 -7 -8 -9 -7 -6 -4 -2 -0 1 2 2 4 5 6 7 8 8 8 9 10 10 8 9 7 6 7 8 10 10 11
-36 -35 -33 -31 -26 -21 -14 -7 -6 -7 -7 -8 -7 -5 -3 -2 -1 -0 1 1 2 6 7 8 9 9 9 9 10 10 8 9 8 8 9 9 10 11
-35 -35 -33 -32 -30 -25 -21 -16 -9 -7 -7 -9 -9 -7 -4 -4 -2 -2 -2 -1 -1 -1 3 6 8 9 9 10 10 10 9 9 7 7 8 9 9 9
-33 -34 -31 -32 -30 -26 -21 -20 -18 -15 -10 -8 -9 -9 -6 -5 -4 -4 -4 -3 -2 -3 -2 -1 0 5 4 8 9 9 9 9 9 9 9 9 9 9
-31 -34 -33 -32 -29 -27 -20 -18 -19 -18 -17 -13 -10 -10 -8 -7 -6 -5 -5 -5 -5 -4 -4 -5 -2 0 -1 1 4 6 8 8 9 9 9 9 8 9
-32 -32 -33 -33 -32 -30 -27 -21 -18 -19 -17 -15 -14 -10 -9 -7 -7 -7 -6 -4 -6 -7 -7 -7 -5 -4 -3 -5 -2 -1 4 7 9 8 8 7 7 8
-28 -30 -32 -33 -33 -32 -31 -30 -29 -25 -19 -15 -15 -13 -10 -8 -7 -7 -7 -7 -7 -7 -8 -8 -8 -6 -5 -5 -4 -3 -1 1 4 6 7 7 7 8
-25 -20 -25 -28 -33 -34 -34 -34 -33 -32 -28 -20 -15 -14 -12 -9 -8 -8 -7 -8 -7 -7 -7 -9 -9 -9 -7 -6 -5 -5 -3 -1 -1 -1 1 2 3 5
-25 -17 -15 -21 -29 -32 -34 -34 -34 -33 -30 -25 -21 -19 -18 -18 -12 -7 -6 -7 -8 -9 -8 -8 -9 -8 -8 -8 -7 -6 -6 -3 -4 -4 -1 -1 -1 0
-24 -20 -20 -16 -27 -29 -31 -32 -33 -34 -35 -35 -33 -29 -27 -25 -25 -22 -15 -12 -10 -9 -10 -10 -9 -9 -9 -9 -8 -8 -7 -6 -6 -5 -3 -3 -3 -2
-23 -23 -20 -27 -23 -28 -28 -29 -30 -32 -34 -35 -36 -36 -34 -32 -29 -28 -26 -25 -20 -14 -13 -12 -10 -10 -10 -10 -12 -12 -14 -13 -12 -8 -6 -5 -5 -4
-26 -26 -26 -28 -28 -28 -29 -27 -29 -31 -32 -34 -35 -35 -35 -35 -33 -31 -31 -31 -30 -25 -18 -16 -14 -16 -18 -13 -18 -25 -18 -21 -19 -17 -16 -13 -8 -7
-29 -28 -28 -29 -29 -29 -29 -29 -30 -29 -30 -31 -32 -33 -33 -34 -35 -35 -34 -34 -34 -35 -33 -24 -22 -19 -22 -22 -19 -25 -30 -27 -28 -23 -18 -17 -18 -18
-30 -30 -31 -30 -30 -29 -30 -29 -28 -27 -28 -28 -29 -31 -32 -34 -35 -35 -36 -36 -36 -35 -35 -33 -27 -24 -23 -20 -26 -28 -25 -21 -34 -33 -25 -17 -15 -15
-31 -31 -31 -32 -31 -31 -30 -29 -28 -26 -26 -26 -28 -29 -30 -32 -33 -34 -35 -32 -27 -31 -36 -36 -34 -29 -30 -32 -27 -30 -30 -25 -31 -34 -35 -29 -19 -16
-31 -32 -32 -32 -31 -31 -31 -28 -25 -23 -22 -24 -26 -27 -25 -28 -31 -33 -34 -30 -24 -23 -25 -30 -34 -30 -24 -21 -33 -31 -29 -24 -31 -27 -28 -28 -29 -20
-32 -32 -31 -31 -31 -31 -30 -29 -25 -24 -23 -23 -24 -26 -27 -29 -28 -30 -32 -28 -22 -22 -23 -24 -24 -23 -20 -20 -30 -31 -30 -25 -24 -23 -23 -19 -26 -30
-32 -31 -31 -30 -30 -30 -30 -30 -28 -25 -23 -23 -24 -25 -28 -29 -31 -30 -29 -28 -22 -22 -23 -23 -23 -22 -21 -20 -20 -29 -29 -27 -24 -24 -23 -28 -30 -32
-31 -31 -31 -30 -30 -30 -29 -29 -28 -27 -25 -24 -24 -25 -30 -27 -30 -27 -24 -26 -23 -22 -22 -23 -24 -26 -23 -22 -21 -23 -30 -29 -27 -26 -28 -24 -23 -29
-31 -30 -30 -30 -30 -29 -29 -29 -27 -25 -24 -24 -24 -27 -32 -30 -26 -26 -25 -22 -22 -22 -22 -23 -23 -23 -23 -23 -22 -21 -20 -28 -27 -26 -24 -25 -23 -18
-30 -30 -30 -30 -30 -29 -29 -29 -28 -26 -26 -24 -24 -29 -32 -32 -29 -28 -24 -23 -24 -23 -22 -22 -23 -23 -22 -23 -22 -20 -20 -19 -19 -18 -17 -20 -20 -24

GFSNE_850_dewp_168.txt.gz
Dewpoint
-10 -10 -10 -9 -8 -8 -8 -8 -8 -6 -6 -4 -5 -5 -4 -1 -0 0 0 2 3 3 4 4 6 7 9 10 11 10 9 10 9 11 11 11 11 10
-12 -12 -14 -10 -9 -9 -8 -8 -8 -8 -7 -5 -5 -5 -5 -2 -2 -1 -1 1 2 3 3 4 5 7 7 9 10 11 8 8 5 7 7 8 10 11
-20 -19 -25 -14 -10 -10 -9 -8 -8 -8 -8 -6 -6 -7 -6 -4 -2 -1 -2 -1 0 3 5 7 5 8 8 8 9 10 10 10 9 7 7 6 8 10
-31 -29 -34 -25 -15 -10 -10 -9 -9 -9 -8 -7 -6 -7 -7 -5 -4 -3 -3 -2 -2 -1 2 5 8 8 8 9 9 9 10 9 9 9 8 5 7 6
-34 -31 -33 -31 -22 -19 -17 -16 -11 -9 -8 -7 -7 -7 -8 -7 -5 -5 -5 -4 -3 -3 -2 0 3 6 7 8 9 10 10 10 10 8 7 7 5 5
-23 -19 -25 -32 -32 -32 -20 -22 -25 -11 -9 -9 -9 -8 -8 -8 -7 -7 -5 -5 -5 -4 -4 -3 -2 -1 3 3 5 8 9 10 10 9 10 8 8 8
-24 -21 -26 -33 -33 -33 -32 -29 -29 -18 -12 -10 -10 -10 -10 -8 -8 -8 -7 -6 -6 -6 -6 -5 -4 -3 -1 -0 -1 1 4 7 9 9 9 9 8 8
-17 -19 -27 -34 -34 -34 -34 -33 -33 -30 -18 -12 -12 -12 -12 -9 -8 -9 -8 -8 -7 -7 -7 -7 -7 -6 -4 -5 -5 -4 -1 -1 2 5 8 9 9 8
-15 -15 -16 -30 -34 -32 -33 -35 -35 -34 -29 -21 -15 -15 -14 -12 -9 -8 -9 -9 -8 -7 -6 -8 -7 -7 -7 -6 -6 -4 -3 -3 -1 -0 1 5 8 8
-14 -13 -13 -18 -32 -29 -20 -30 -35 -34 -33 -28 -22 -21 -21 -20 -14 -10 -10 -9 -9 -8 -7 -8 -8 -8 -8 -7 -6 -6 -5 -4 -4 -4 -2 -0 5 6
-13 -20 -16 -16 -32 -32 -23 -28 -34 -35 -35 -35 -31 -29 -27 -27 -28 -24 -16 -11 -10 -10 -9 -10 -10 -9 -9 -8 -7 -7 -7 -7 -5 -6 -6 -3 -1 0
-13 -13 -22 -30 -31 -33 -31 -31 -32 -30 -34 -33 -32 -31 -35 -35 -34 -32 -24 -15 -13 -12 -15 -11 -11 -11 -9 -10 -9 -8 -8 -8 -7 -6 -6 -6 -4 -3
-13 -13 -18 -32 -32 -32 -31 -30 -31 -29 -19 -16 -15 -16 -21 -25 -27 -27 -25 -31 -25 -15 -19 -17 -13 -13 -11 -11 -11 -21 -15 -13 -9 -8 -8 -8 -6 -5
-18 -17 -28 -32 -32 -31 -31 -30 -30 -19 -15 -15 -15 -15 -16 -17 -20 -18 -27 -20 -30 -31 -27 -22 -14 -14 -13 -13 -13 -15 -15 -17 -24 -16 -13 -12 -10 -7
-33 -33 -33 -32 -31 -29 -31 -31 -18 -17 -16 -16 -16 -16 -16 -17 -17 -18 -16 -16 -17 -30 -34 -29 -16 -15 -14 -14 -14 -14 -14 -13 -21 -25 -17 -14 -17 -16
-33 -32 -33 -30 -27 -21 -18 -17 -17 -17 -17 -17 -17 -17 -16 -17 -17 -17 -16 -16 -16 -16 -20 -31 -26 -16 -16 -15 -15 -15 -15 -14 -15 -15 -15 -12 -12 -12
-34 -31 -24 -19 -16 -17 -17 -17 -17 -17 -17 -17 -17 -17 -17 -17 -18 -18 -17 -17 -18 -19 -19 -19 -20 -17 -16 -22 -16 -16 -15 -15 -15 -15 -14 -13 -12 -12
-26 -21 -18 -17 -17 -17 -17 -17 -18 -18 -18 -18 -18 -18 -18 -19 -20 -20 -19 -19 -20 -21 -22 -21 -20 -19 -18 -17 -24 -18 -17 -17 -16 -15 -15 -14 -13 -13
-21 -18 -18 -17 -18 -19 -19 -18 -18 -19 -19 -19 -19 -19 -18 -19 -20 -20 -20 -19 -20 -22 -23 -23 -22 -21 -19 -18 -18 -18 -18 -17 -17 -16 -16 -16 -15 -15
-27 -20 -18 -18 -19 -20 -20 -19 -19 -19 -19 -19 -19 -20 -20 -19 -19 -20 -20 -20 -20 -22 -23 -23 -23 -22 -21 -20 -18 -17 -18 -18 -18 -17 -17 -17 -16 -18
-26 -22 -22 -21 -19 -20 -20 -20 -20 -21 -21 -20 -20 -20 -20 -19 -20 -20 -19 -20 -21 -21 -22 -23 -23 -22 -22 -21 -20 -18 -18 -18 -18 -18 -17 -17 -17 -16
-27 -23 -25 -23 -20 -21 -21 -21 -20 -20 -20 -20 -21 -21 -21 -20 -20 -20 -20 -20 -22 -22 -22 -22 -23 -22 -22 -23 -22 -19 -19 -18 -18 -18 -17 -17 -17 -16
-30 -28 -25 -25 -22 -21 -21 -21 -22 -21 -21 -21 -21 -21 -21 -21 -21 -21 -20 -21 -22 -22 -22 -22 -22 -22 -22 -22 -21 -19 -19 -19 -19 -18 -18 -16 -16 -16

GFSNE_850_dewp_174.txt.gz
Dewpoint
-9 -14 -11 -10 -7 -7 -8 -7 -7 -7 -8 -8 -8 -6 -6 -6 -6 -5 -5 -4 -4 -3 -2 -1 -0 1 3 3 3 5 6 8 8 10 7 10 11 11
-17 -23 -23 -15 -9 -10 -8 -9 -8 -8 -7 -7 -7 -7 -8 -7 -6 -5 -5 -5 -5 -4 -4 -3 -2 -1 1 3 4 4 4 6 8 8 10 7 3 9
-26 -32 -33 -28 -23 -19 -12 -12 -11 -8 -7 -9 -7 -9 -11 -7 -7 -6 -6 -6 -6 -5 -5 -4 -4 -3 -1 1 3 5 5 6 8 9 10 9 10 8
-30 -33 -35 -36 -36 -32 -27 -24 -22 -9 -8 -8 -8 -11 -16 -8 -7 -6 -6 -6 -6 -6 -6 -5 -5 -4 -3 -2 0 3 6 7 8 9 9 10 8 3
-29 -34 -36 -37 -37 -37 -36 -34 -29 -15 -13 -9 -11 -18 -24 -20 -8 -8 -7 -7 -7 -7 -7 -7 -6 -5 -5 -4 -3 -1 2 5 7 8 9 10 10 9
-27 -29 -36 -37 -37 -37 -37 -37 -36 -31 -23 -15 -20 -26 -30 -32 -20 -10 -8 -8 -8 -8 -7 -7 -7 -8 -6 -5 -5 -4 -3 0 3 7 9 9 9 8
-22 -24 -31 -36 -34 -34 -31 -35 -36 -36 -33 -26 -25 -28 -29 -33 -26 -19 -10 -9 -8 -9 -7 -8 -8 -8 -8 -8 -7 -6 -5 -4 -1 1 5 6 9 9
-16 -16 -20 -33 -29 -23 -17 -23 -28 -30 -31 -28 -24 -24 -22 -24 -25 -20 -13 -10 -8 -10 -11 -8 -9 -9 -9 -9 -8 -7 -6 -5 -4 -1 -1 3 6 8
-16 -11 -13 -27 -30 -21 -14 -16 -27 -26 -26 -20 -19 -17 -15 -15 -20 -20 -20 -11 -10 -9 -17 -11 -11 -9 -9 -9 -9 -8 -7 -7 -6 -5 -5 -3 0 4
-15 -20 -22 -30 -35 -30 -19 -23 -27 -21 -14 -13 -13 -14 -14 -14 -17 -19 -19 -23 -11 -10 -25 -18 -19 -9 -9 -10 -12 -9 -8 -8 -7 -6 -6 -6 -5 -3
-13 -16 -22 -34 -36 -35 -30 -31 -28 -20 -15 -13 -13 -13 -14 -14 -15 -22 -27 -28 -28 -12 -31 -17 -15 -15 -9 -10 -15 -20 -10 -10 -9 -8 -8 -7 -6 -5
-11 -13 -19 -35 -36 -36 -35 -33 -28 -19 -14 -14 -13 -14 -15 -16 -19 -16 -17 -17 -18 -27 -29 -26 -16 -14 -14 -13 -14 -20 -17 -14 -11 -9 -9 -9 -7 -7
-11 -14 -24 -34 -35 -34 -35 -31 -19 -15 -14 -14 -14 -15 -15 -17 -16 -16 -15 -14 -15 -15 -19 -26 -18 -15 -14 -13 -14 -16 -14 -19 -23 -11 -10 -10 -10 -9
-21 -26 -33 -34 -32 -28 -24 -18 -15 -16 -14 -15 -15 -15 -15 -17 -15 -17 -15 -14 -14 -15 -17 -22 -16 -15 -17 -16 -15 -21 -16 -14 -21 -15 -12 -11 -11 -10
-31 -32 -31 -25 -19 -16 -16 -15 -15 -15 -15 -15 -16 -16 -15 -17 -16 -18 -16 -16 -16 -17 -19 -22 -16 -15 -16 -17 -17 -20 -21 -16 -20 -17 -13 -12 -12 -12
-30 -28 -18 -16 -14 -14 -15 -15 -16 -16 -16 -16 -16 -17 -16 -17 -17 -18 -17 -17 -18 -20 -21 -22 -18 -16 -15 -16 -16 -19 -19 -16 -19 -17 -16 -14 -13 -13
-32 -19 -14 -14 -14 -15 -15 -15 -15 -17 -18 -17 -17 -18 -17 -17 -18 -17 -19 -18 -19 -21 -22 -22 -24 -18 -15 -16 -16 -17 -18 -19 -19 -17 -17 -18 -16 -14
-23 -15 -14 -15 -15 -16 -17 -17 -16 -17 -18 -17 -17 -18 -18 -17 -18 -17 -18 -19 -19 -21 -21 -22 -22 -22 -20 -22 -17 -17 -16 -18 -19 -18 -17 -16 -18 -16
-17 -15 -15 -15 -16 -17 -18 -17 -17 -17 -18 -18 -18 -19 -19 -17 -19 -18 -19 -21 -19 -20 -21 -21 -21 -21 -20 -20 -19 -17 -16 -18 -18 -17 -17 -17 -17 -14
-20 -17 -16 -17 -17 -18 -17 -18 -18 -18 -19 -19 -18 -19 -19 -18 -20 -19 -19 -19 -20 -21 -21 -21 -21 -21 -20 -21 -21 -19 -16 -19 -17 -16 -16 -18 -19 -15
-18 -19 -20 -19 -18 -18 -18 -18 -18 -19 -19 -19 -19 -19 -20 -19 -19 -20 -21 -19 -20 -21 -22 -21 -20 -21 -20 -21 -21 -19 -17 -21 -17 -16 -16 -17 -18 -19
-18 -20 -19 -21 -19 -19 -18 -18 -19 -19 -19 -19 -19 -19 -21 -20 -19 -20 -21 -20 -20 -20 -22 -21 -20 -20 -20 -20 -20 -19 -18 -21 -21 -19 -17 -16 -17 -16
-19 -20 -19 -20 -20 -19 -20 -19 -19 -20 -20 -20 -20 -21 -20 -19 -21 -20 -20 -22 -21 -21 -22 -22 -21 -22 -21 -20 -22 -19 -20 -22 -21 -22 -21 -17 -18 -18